STARLINK-32340 (61008 NORAD) Tracking and Keplerian Element Data

This shows tracking and keplerian element data for the satellite.

Feedback or suggestion? Click here.




ElementValue
Catalog61008
NameSTARLINK-32340
Epoch Orbit700
Epoch Day286.72740301
Epoch Year2024
RAAN291.0325
Inclination53.159
Eccentricity8.98E-05
Argument of Perigee87.3145
Mean Anonmoly272.7974
Mean Motion15.67568325
Decay Rate4.725E-05
L11 61008U 24158U 24286.72740301 .00004725 00000+0 47708-4 0 9998
L22 61008 53.1590 291.0325 0000898 87.3145 272.7974 15.67568325 7008



Live tracking and technical data element details for STARLINK-32340 (NORAD 61008). STARLINK-32340 can be tracked NOW for your location showing map with azimuth and elevation plus other details from your city location.







IsCatalogInMostPopularTable: catalog: 61008, numindb: 9
Update: records affected: 1



GetName: 61008 STARLINK-32340

Hit Count: updated at: Wed, 04 Dec 2024 19:05:56 GMT